sat.trackr.live / text

‹ back to catalog

STARLINK-1716

NORAD 46672 · 2020-073C

PAYLOAD ACTIVE UNKNOWN

§ Identity

Operator
Country
US
Launch date
2020-10-18
Launch site
AFETR
Launch vehicle
Mass (kg)
RCS (m²)

Purposes: comms

External: N2YO · Heavens-Above · Gunter

§ Orbital elements

Epoch: 2026-06-29T01:09:28.209888Z

Period
87.56 min
Inclination
53.0235°
Eccentricity
0.0010895
Mean motion
16.44664881 rev/d
Perigee alt
146.3 km
Apogee alt
160.5 km
Semi-major
6,531.6 km
B*
2.9965e-4
RAAN
1.1662°
Arg perigee
287.2317°
Mean anomaly
72.7538°
Rev number
31,532

§ Raw data

STARLINK-17161 46672U 20073C   26180.04824317  .10972724  12546-4  29965-3 0  99912 46672  53.0235   1.1662 0010895 287.2317  72.7538 16.44664881315328

JSON: /api/v1/satellites/46672 · /tle

For live sub-satellite position, see the globe view (requires WebGL).

§ Visibility from observer

Set your observer location to see the next 7 days of passes ≥ 10°. The values pass through the URL so the page stays shareable.

No JS? Fill the form by hand. The geolocation button needs JavaScript.